• In Schweiz
  • Länderverzeichnis
  • Für 7 Tage
  • Wassertemperatur
  • Satellitenkarten
  • Wetterkarte
  • Widgets
  • user-avatar
    Anmelden

    Stündliche Wetter Rivas

    Heute, 24 November, Freitag

    Zeit Temperatur Niederschläge Wind Luftdruck Luftfeuchtigkeit
    00:00 +26°C° 0,1 mm 6 m/S 752 mmHg 85%
    01:00 +26°C° 0 mm 6 m/S 751 mmHg 85%
    02:00 +24°C° 0 mm 6 m/S 751 mmHg 85%
    03:00 +24°C° 0 mm 6 m/S 751 mmHg 86%
    04:00 +24°C° 0 mm 6 m/S 751 mmHg 86%
    05:00 +24°C° 0 mm 6 m/S 751 mmHg 86%
    06:00 +24°C° 0 mm 6 m/S 751 mmHg 86%
    07:00 +26°C° 0 mm 7 m/S 752 mmHg 81%
    08:00 +27°C° 0 mm 7 m/S 752 mmHg 76%
    09:00 +29°C° 0 mm 7 m/S 752 mmHg 71%
    10:00 +29°C° 0 mm 7 m/S 752 mmHg 68%
    11:00 +30°C° 0 mm 7 m/S 752 mmHg 65%
    12:00 +32°C° 0 mm 7 m/S 751 mmHg 62%
    13:00 +32°C° 0 mm 7 m/S 751 mmHg 64%
    14:00 +32°C° 0 mm 6 m/S 750 mmHg 65%
    15:00 +32°C° 0 mm 6 m/S 750 mmHg 66%
    16:00 +30°C° 0,1 mm 6 m/S 750 mmHg 71%
    17:00 +28°C° 0,1 mm 5 m/S 750 mmHg 76%
    18:00 +27°C° 0,1 mm 5 m/S 751 mmHg 81%
    19:00 +27°C° 0,1 mm 6 m/S 751 mmHg 82%
    20:00 +27°C° 0,1 mm 6 m/S 752 mmHg 83%
    21:00 +27°C° 0,1 mm 6 m/S 752 mmHg 84%
    22:00 +27°C° 0 mm 7 m/S 752 mmHg 83%
    23:00 +27°C° 0 mm 7 m/S 752 mmHg 82%

    Morgen, 25 November, Samstag

    Zeit Temperatur Niederschläge Wind Luftdruck Luftfeuchtigkeit
    00:00 +26°C° 0 mm 7 m/S 752 mmHg 81%
    01:00 +26°C° 0 mm 7 m/S 752 mmHg 81%
    02:00 +26°C° 0 mm 7 m/S 752 mmHg 80%
    03:00 +26°C° 0 mm 7 m/S 752 mmHg 79%
    04:00 +24°C° 0 mm 7 m/S 752 mmHg 79%
    05:00 +24°C° 0 mm 6 m/S 752 mmHg 79%
    06:00 +24°C° 0 mm 6 m/S 752 mmHg 78%
    07:00 +26°C° 0 mm 6 m/S 753 mmHg 75%
    08:00 +27°C° 0 mm 7 m/S 753 mmHg 72%
    09:00 +28°C° 0 mm 7 m/S 754 mmHg 69%
    10:00 +29°C° 0 mm 7 m/S 753 mmHg 67%
    11:00 +30°C° 0 mm 7 m/S 753 mmHg 65%
    12:00 +32°C° 0 mm 6 m/S 752 mmHg 64%
    13:00 +32°C° 0 mm 6 m/S 752 mmHg 65%
    14:00 +32°C° 0 mm 6 m/S 751 mmHg 67%
    15:00 +32°C° 0 mm 5 m/S 750 mmHg 68%
    16:00 +30°C° 0 mm 5 m/S 750 mmHg 73%
    17:00 +29°C° 0 mm 4 m/S 751 mmHg 77%
    18:00 +27°C° 0 mm 4 m/S 751 mmHg 82%
    19:00 +27°C° 0 mm 4 m/S 752 mmHg 83%
    20:00 +27°C° 0 mm 5 m/S 752 mmHg 83%
    21:00 +27°C° 0 mm 5 m/S 753 mmHg 84%
    22:00 +27°C° 0 mm 6 m/S 753 mmHg 84%
    23:00 +27°C° 0 mm 6 m/S 753 mmHg 85%

    übermorgen, 26 November, Sonntag

    Zeit Temperatur Niederschläge Wind Luftdruck Luftfeuchtigkeit
    00:00 +26°C° 0 mm 6 m/S 753 mmHg 85%
    01:00 +26°C° 0 mm 6 m/S 752 mmHg 84%
    02:00 +26°C° 0 mm 6 m/S 752 mmHg 83%
    03:00 +26°C° 0 mm 6 m/S 752 mmHg 82%
    04:00 +26°C° 0 mm 6 m/S 752 mmHg 82%
    05:00 +26°C° 0 mm 6 m/S 752 mmHg 82%
    06:00 +24°C° 0 mm 6 m/S 752 mmHg 81%
    07:00 +27°C° 0 mm 6 m/S 753 mmHg 78%
    08:00 +28°C° 0 mm 6 m/S 753 mmHg 74%
    09:00 +29°C° 0 mm 7 m/S 754 mmHg 71%
    10:00 +30°C° 0 mm 6 m/S 753 mmHg 69%
    11:00 +32°C° 0 mm 6 m/S 753 mmHg 67%
    12:00 +33°C° 0 mm 6 m/S 752 mmHg 65%
    13:00 +32°C° 0,1 mm 6 m/S 751 mmHg 66%
    14:00 +32°C° 0,1 mm 6 m/S 750 mmHg 67%
    15:00 +32°C° 0,1 mm 5 m/S 750 mmHg 68%
    16:00 +30°C° 0,4 mm 5 m/S 750 mmHg 74%
    17:00 +29°C° 0,4 mm 5 m/S 750 mmHg 79%
    18:00 +27°C° 0,4 mm 5 m/S 751 mmHg 85%
    19:00 +27°C° 0,4 mm 6 m/S 751 mmHg 84%
    20:00 +27°C° 0,4 mm 6 m/S 752 mmHg 83%
    21:00 +27°C° 0,4 mm 7 m/S 752 mmHg 83%
    22:00 +27°C° 0 mm 7 m/S 752 mmHg 83%
    23:00 +26°C° 0 mm 7 m/S 752 mmHg 83%

    27 November, Montag

    Zeit Temperatur Niederschläge Wind Luftdruck Luftfeuchtigkeit
    00:00 +26°C° 0 mm 7 m/S 752 mmHg 82%
    01:00 +26°C° 0 mm 7 m/S 752 mmHg 82%
    02:00 +26°C° 0 mm 7 m/S 751 mmHg 82%
    03:00 +24°C° 0 mm 7 m/S 751 mmHg 81%
    04:00 +24°C° 0 mm 7 m/S 751 mmHg 82%
    05:00 +24°C° 0 mm 7 m/S 752 mmHg 82%
    06:00 +24°C° 0 mm 7 m/S 752 mmHg 82%
    07:00 +26°C° 0 mm 7 m/S 752 mmHg 78%
    08:00 +27°C° 0 mm 7 m/S 753 mmHg 74%
    09:00 +28°C° 0 mm 8 m/S 753 mmHg 70%
    10:00 +29°C° 0 mm 7 m/S 753 mmHg 68%
    11:00 +30°C° 0 mm 7 m/S 752 mmHg 66%
    12:00 +30°C° 0 mm 7 m/S 752 mmHg 64%
    13:00 +30°C° 0 mm 7 m/S 751 mmHg 64%
    14:00 +30°C° 0 mm 7 m/S 750 mmHg 65%
    15:00 +30°C° 0 mm 6 m/S 749 mmHg 66%
    16:00 +29°C° 0 mm 6 m/S 750 mmHg 69%
    17:00 +28°C° 0 mm 6 m/S 750 mmHg 73%
    18:00 +28°C° 0 mm 5 m/S 751 mmHg 76%
    19:00 +27°C° 0 mm 6 m/S 751 mmHg 75%
    20:00 +27°C° 0 mm 6 m/S 752 mmHg 74%
    21:00 +27°C° 0 mm 7 m/S 753 mmHg 73%
    22:00 +27°C° 0 mm 7 m/S 752 mmHg 74%
    23:00 +26°C° 0 mm 7 m/S 752 mmHg 76%

    28 November, Dienstag

    Zeit Temperatur Niederschläge Wind Luftdruck Luftfeuchtigkeit
    00:00 +26°C° 0 mm 7 m/S 752 mmHg 77%
    01:00 +26°C° 0 mm 7 m/S 752 mmHg 77%
    02:00 +24°C° 0 mm 7 m/S 751 mmHg 78%
    03:00 +24°C° 0 mm 7 m/S 751 mmHg 79%
    04:00 +23°C° 0 mm 7 m/S 751 mmHg 79%
    05:00 +23°C° 0 mm 7 m/S 752 mmHg 79%
    06:00 +23°C° 0 mm 7 m/S 752 mmHg 79%
    07:00 +24°C° 0 mm 7 m/S 753 mmHg 74%
    08:00 +26°C° 0 mm 8 m/S 753 mmHg 70%
    09:00 +27°C° 0 mm 8 m/S 753 mmHg 66%
    10:00 +28°C° 0 mm 8 m/S 753 mmHg 64%
    11:00 +29°C° 0 mm 7 m/S 752 mmHg 61%
    12:00 +30°C° 0 mm 7 m/S 752 mmHg 59%
    13:00 +30°C° 0 mm 7 m/S 751 mmHg 61%
    14:00 +30°C° 0 mm 6 m/S 751 mmHg 63%
    15:00 +30°C° 0 mm 6 m/S 750 mmHg 65%
    16:00 +29°C° 0 mm 6 m/S 751 mmHg 69%
    17:00 +28°C° 0 mm 5 m/S 751 mmHg 73%
    18:00 +27°C° 0 mm 4 m/S 751 mmHg 77%
    19:00 +27°C° 0 mm 5 m/S 752 mmHg 78%
    20:00 +27°C° 0 mm 5 m/S 752 mmHg 78%
    21:00 +27°C° 0 mm 5 m/S 753 mmHg 79%
    22:00 +27°C° 0 mm 5 m/S 752 mmHg 80%
    23:00 +27°C° 0 mm 6 m/S 752 mmHg 80%

    29 November, Mittwoch

    Zeit Temperatur Niederschläge Wind Luftdruck Luftfeuchtigkeit
    00:00 +26°C° 0 mm 6 m/S 752 mmHg 80%
    01:00 +26°C° 0 mm 6 m/S 752 mmHg 80%
    02:00 +26°C° 0 mm 6 m/S 751 mmHg 80%
    03:00 +26°C° 0 mm 6 m/S 751 mmHg 80%
    04:00 +26°C° 0 mm 6 m/S 752 mmHg 80%
    05:00 +26°C° 0 mm 6 m/S 752 mmHg 80%
    06:00 +24°C° 0 mm 6 m/S 752 mmHg 81%
    07:00 +27°C° 0 mm 6 m/S 753 mmHg 78%
    08:00 +28°C° 0 mm 6 m/S 753 mmHg 75%
    09:00 +29°C° 0 mm 6 m/S 753 mmHg 72%
    10:00 +30°C° 0 mm 6 m/S 753 mmHg 71%
    11:00 +30°C° 0 mm 6 m/S 752 mmHg 70%
    12:00 +32°C° 0 mm 6 m/S 752 mmHg 68%
    13:00 +32°C° 0,2 mm 6 m/S 751 mmHg 70%
    14:00 +32°C° 0,2 mm 5 m/S 751 mmHg 71%
    15:00 +32°C° 0,2 mm 5 m/S 750 mmHg 73%
    16:00 +30°C° 0,7 mm 5 m/S 750 mmHg 77%
    17:00 +28°C° 0,7 mm 5 m/S 751 mmHg 81%
    18:00 +27°C° 0,7 mm 5 m/S 751 mmHg 85%
    19:00 +27°C° 0,2 mm 6 m/S 751 mmHg 85%
    20:00 +27°C° 0,2 mm 6 m/S 752 mmHg 85%
    21:00 +27°C° 0,2 mm 6 m/S 752 mmHg 85%
    22:00 +27°C° 0 mm 6 m/S 752 mmHg 85%
    23:00 +27°C° 0 mm 6 m/S 752 mmHg 85%
    Mehr zeigen